FDX1416 KMEM-KSAT

Flight info

Callsign FDX1416
Flight time 1h 31m
Altitude 40000
Route AUTMN6 LUVEC ELD CLL MARCS2
Aircraft MD11/H-SDE1E2E3FGHIJ2J3J4J5M1RWXY/LB1D1

Departure

Time 2026-04-24 12:15
Airport Memphis International Airport (KMEM)

Arrival

Time 2026-04-24 13:46
Airport San Antonio International Airport (KSAT)
Time Latitude Longitude Altitude Speed Heading
2026-04-24 11:45 35.02998 -89.98346 338 ft 0 kts 88°
2026-04-24 12:08 35.02997 -89.98303 316 ft 8 kts 92°
2026-04-24 12:08 35.02981 -89.98256 335 ft 5 kts 143°
2026-04-24 12:08 35.02935 -89.98252 338 ft 9 kts 179°
2026-04-24 12:08 35.02855 -89.98247 335 ft 14 kts 178°
2026-04-24 12:09 35.02741 -89.98243 333 ft 19 kts 179°
2026-04-24 12:09 35.02597 -89.98239 335 ft 18 kts 179°
2026-04-24 12:09 35.02534 -89.98297 335 ft 11 kts 268°
2026-04-24 12:09 35.02538 -89.98420 334 ft 17 kts 275°
2026-04-24 12:10 35.02585 -89.98471 333 ft 9 kts
2026-04-24 12:10 35.02670 -89.98464 333 ft 15 kts
2026-04-24 12:10 35.02796 -89.98465 335 ft 21 kts 359°
2026-04-24 12:11 35.03174 -89.98472 334 ft 33 kts 359°
2026-04-24 12:11 35.03420 -89.98477 335 ft 38 kts 359°
2026-04-24 12:11 35.03699 -89.98484 335 ft 42 kts 358°
2026-04-24 12:11 35.04009 -89.98499 335 ft 46 kts 358°
2026-04-24 12:12 35.04343 -89.98496 335 ft 50 kts
2026-04-24 12:12 35.04689 -89.98512 335 ft 49 kts 358°
2026-04-24 12:12 35.04898 -89.98518 335 ft 14 kts 353°
2026-04-24 12:12 35.04935 -89.98575 335 ft 7 kts 270°
2026-04-24 12:13 35.04935 -89.98651 340 ft 11 kts 269°
2026-04-24 12:13 35.04927 -89.98733 337 ft 4 kts 241°
2026-04-24 12:13 35.04915 -89.98738 336 ft 4 kts 200°
2026-04-24 12:13 35.04879 -89.98744 337 ft 5 kts 175°
2026-04-24 12:14 35.04877 -89.98744 337 ft 0 kts 175°
2026-04-24 12:14 35.04865 -89.98743 337 ft 7 kts 175°
2026-04-24 12:14 35.04587 -89.98737 336 ft 93 kts 180°
2026-04-24 12:14 35.03582 -89.98720 424 ft 181 kts 180°
2026-04-24 12:15 35.02255 -89.98680 1333 ft 195 kts 181°
2026-04-24 12:15 35.00845 -89.98610 2267 ft 214 kts 182°
2026-04-24 12:15 34.99338 -89.98533 3172 ft 224 kts 181°
2026-04-24 12:15 34.97689 -89.98491 3545 ft 248 kts 181°
2026-04-24 12:16 34.95888 -89.98571 3909 ft 264 kts 189°
2026-04-24 12:16 34.94127 -89.98836 5137 ft 242 kts 184°
2026-04-24 12:16 34.92355 -89.98934 5429 ft 268 kts 188°
2026-04-24 12:16 34.90628 -89.99528 6487 ft 245 kts 201°
2026-04-24 12:17 34.89036 -90.00431 6369 ft 280 kts 210°
2026-04-24 12:17 34.87577 -90.02110 7167 ft 291 kts 237°
2026-04-24 12:17 34.86825 -90.04423 8202 ft 305 kts 248°
2026-04-24 12:17 34.85886 -90.06744 9332 ft 301 kts 235°
2026-04-24 12:18 34.84714 -90.08874 10405 ft 305 kts 234°
2026-04-24 12:18 34.83515 -90.11108 10920 ft 331 kts 239°
2026-04-24 12:18 34.82334 -90.13684 11068 ft 366 kts 243°
2026-04-24 12:18 34.81145 -90.16532 11166 ft 398 kts 244°
2026-04-24 12:19 34.79919 -90.19427 13136 ft 358 kts 244°
2026-04-24 12:19 34.78752 -90.22143 14433 ft 365 kts 244°
2026-04-24 12:19 34.77568 -90.24903 15317 ft 369 kts 244°
2026-04-24 12:19 34.76374 -90.27689 16169 ft 373 kts 244°
2026-04-24 12:20 34.75167 -90.30508 17001 ft 378 kts 244°
2026-04-24 12:20 34.73961 -90.33324 17815 ft 382 kts 244°
2026-04-24 12:20 34.72725 -90.36209 18518 ft 387 kts 244°
2026-04-24 12:20 34.71472 -90.39132 19213 ft 390 kts 244°
2026-04-24 12:21 34.70212 -90.42069 19938 ft 392 kts 244°
2026-04-24 12:21 34.68937 -90.45037 20578 ft 397 kts 244°
2026-04-24 12:21 34.67670 -90.47986 21223 ft 400 kts 244°
2026-04-24 12:21 34.66371 -90.51008 21872 ft 405 kts 244°
2026-04-24 12:22 34.65058 -90.54058 22522 ft 409 kts 244°
2026-04-24 12:22 34.63730 -90.57139 23231 ft 413 kts 244°
2026-04-24 12:22 34.62387 -90.60252 23838 ft 417 kts 243°
2026-04-24 12:22 34.60880 -90.63291 24425 ft 422 kts 238°
2026-04-24 12:23 34.59172 -90.66204 25052 ft 426 kts 236°
2026-04-24 12:23 34.57389 -90.69055 25669 ft 430 kts 235°
2026-04-24 12:23 34.55547 -90.71944 26291 ft 434 kts 235°
2026-04-24 12:23 34.53695 -90.74853 26899 ft 438 kts 236°
2026-04-24 12:24 34.51832 -90.77796 27545 ft 440 kts 236°
2026-04-24 12:24 34.49966 -90.80762 28190 ft 444 kts 236°
2026-04-24 12:24 34.48091 -90.83753 28791 ft 447 kts 236°
2026-04-24 12:24 34.46198 -90.86779 29341 ft 452 kts 236°
2026-04-24 12:25 34.44315 -90.89789 29869 ft 456 kts 236°
2026-04-24 12:25 34.42389 -90.92868 30312 ft 461 kts 236°
2026-04-24 12:25 34.40444 -90.95972 30773 ft 463 kts 236°
2026-04-24 12:25 34.38487 -90.99092 31272 ft 465 kts 236°
2026-04-24 12:26 34.36525 -91.02216 31778 ft 466 kts 236°
2026-04-24 12:26 34.34554 -91.05351 32251 ft 468 kts 236°
2026-04-24 12:26 34.32603 -91.08452 32744 ft 469 kts 236°
2026-04-24 12:26 34.30622 -91.11598 33202 ft 470 kts 236°
2026-04-24 12:27 34.28637 -91.14749 33654 ft 471 kts 236°
2026-04-24 12:27 34.26644 -91.17909 34065 ft 473 kts 236°
2026-04-24 12:27 34.24655 -91.21060 34519 ft 472 kts 236°
2026-04-24 12:27 34.22663 -91.24211 34974 ft 470 kts 236°
2026-04-24 12:28 34.20680 -91.27347 35413 ft 469 kts 236°
2026-04-24 12:28 34.18698 -91.30478 35839 ft 468 kts 236°
2026-04-24 12:28 34.17389 -91.32545 36114 ft 467 kts 236°
2026-04-24 12:28 34.15415 -91.35660 36530 ft 466 kts 236°
2026-04-24 12:29 34.12803 -91.39777 37054 ft 465 kts 236°
2026-04-24 12:29 34.10835 -91.42877 37444 ft 464 kts 236°
2026-04-24 12:29 34.09505 -91.44968 37717 ft 463 kts 236°
2026-04-24 12:29 34.07540 -91.48041 38089 ft 462 kts 235°
2026-04-24 12:30 34.05597 -91.51071 38436 ft 462 kts 235°
2026-04-24 12:30 34.03631 -91.54139 38733 ft 461 kts 236°
2026-04-24 12:30 34.01676 -91.57194 39041 ft 459 kts 236°
2026-04-24 12:30 33.99734 -91.60233 39389 ft 456 kts 236°
2026-04-24 12:31 33.97798 -91.63260 39745 ft 453 kts 236°
2026-04-24 12:31 33.95875 -91.66269 39921 ft 453 kts 236°
2026-04-24 12:31 33.93955 -91.69272 39951 ft 452 kts 236°
2026-04-24 12:32 33.90129 -91.75249 39977 ft 453 kts 236°
2026-04-24 12:32 33.86274 -91.81258 39983 ft 453 kts 236°
2026-04-24 12:33 33.82439 -91.87226 39974 ft 453 kts 236°
2026-04-24 12:33 33.78570 -91.93237 39974 ft 454 kts 235°
2026-04-24 12:34 33.74698 -91.99242 39976 ft 455 kts 235°
2026-04-24 12:34 33.70820 -92.05247 39972 ft 455 kts 235°
2026-04-24 12:35 33.66925 -92.11267 39976 ft 455 kts 235°
2026-04-24 12:35 33.63062 -92.17228 39974 ft 455 kts 235°
2026-04-24 12:36 33.59163 -92.23234 39974 ft 455 kts 235°
2026-04-24 12:36 33.55250 -92.29221 39966 ft 456 kts 234°
2026-04-24 12:37 33.51336 -92.35200 39968 ft 456 kts 234°
2026-04-24 12:37 33.47445 -92.41156 39968 ft 456 kts 234°
2026-04-24 12:38 33.43535 -92.47140 39966 ft 456 kts 234°
2026-04-24 12:38 33.39617 -92.53128 39966 ft 456 kts 234°
2026-04-24 12:39 33.31790 -92.65058 39967 ft 456 kts 234°
2026-04-24 12:40 33.27864 -92.71028 39968 ft 456 kts 234°
2026-04-24 12:40 33.23899 -92.76962 39968 ft 457 kts 233°
2026-04-24 12:41 33.19894 -92.82807 39960 ft 457 kts 233°
2026-04-24 12:41 33.15854 -92.88689 39960 ft 457 kts 233°
2026-04-24 12:42 33.11844 -92.94533 39948 ft 457 kts 233°
2026-04-24 12:42 33.07850 -93.00349 39958 ft 450 kts 234°
2026-04-24 12:43 33.03880 -93.06126 39955 ft 449 kts 233°
2026-04-24 12:43 32.99918 -93.11881 39956 ft 448 kts 233°
2026-04-24 12:44 32.95979 -93.17594 39960 ft 448 kts 233°
2026-04-24 12:44 32.92017 -93.23332 39962 ft 449 kts 233°
2026-04-24 12:45 32.88043 -93.29075 39966 ft 448 kts 233°
2026-04-24 12:45 32.84096 -93.34771 39955 ft 448 kts 234°
2026-04-24 12:46 32.80143 -93.40464 39974 ft 444 kts 234°
2026-04-24 12:46 32.76205 -93.46132 39983 ft 444 kts 234°
2026-04-24 12:47 32.72267 -93.51782 39975 ft 444 kts 234°
2026-04-24 12:47 32.68329 -93.57395 39953 ft 444 kts 234°
2026-04-24 12:48 32.64377 -93.63038 39956 ft 444 kts 234°
2026-04-24 12:48 32.60450 -93.68650 39959 ft 444 kts 234°
2026-04-24 12:49 32.56498 -93.74294 39960 ft 444 kts 234°
2026-04-24 12:49 32.52558 -93.79905 39938 ft 439 kts 236°
2026-04-24 12:50 32.48659 -93.85456 39940 ft 437 kts 236°
2026-04-24 12:50 32.44767 -93.90992 39940 ft 437 kts 236°
2026-04-24 12:51 32.40868 -93.96528 39942 ft 437 kts 236°
2026-04-24 12:51 32.36989 -94.02025 39943 ft 437 kts 236°
2026-04-24 12:52 32.33088 -94.07545 39952 ft 437 kts 236°
2026-04-24 12:52 32.29179 -94.13068 39948 ft 437 kts 236°
2026-04-24 12:53 32.25341 -94.18478 39944 ft 433 kts 237°
2026-04-24 12:53 32.21483 -94.23911 39953 ft 430 kts 237°
2026-04-24 12:54 32.17630 -94.29314 39965 ft 430 kts 237°
2026-04-24 12:54 32.13794 -94.34677 39949 ft 431 kts 237°
2026-04-24 12:55 32.09928 -94.40089 39952 ft 431 kts 237°
2026-04-24 12:55 32.06064 -94.45500 39949 ft 431 kts 237°
2026-04-24 12:56 32.02194 -94.50914 39948 ft 431 kts 237°
2026-04-24 12:56 31.98354 -94.56277 39950 ft 430 kts 237°
2026-04-24 12:57 31.94515 -94.61623 39952 ft 424 kts 237°
2026-04-24 12:57 31.90711 -94.66924 39956 ft 423 kts 237°
2026-04-24 12:58 31.86926 -94.72191 39959 ft 423 kts 237°
2026-04-24 12:58 31.83115 -94.77486 39959 ft 423 kts 237°
2026-04-24 12:59 31.79299 -94.82779 39954 ft 423 kts 237°
2026-04-24 12:59 31.75490 -94.88053 39947 ft 423 kts 237°
2026-04-24 13:00 31.71701 -94.93294 39943 ft 424 kts 237°
2026-04-24 13:00 31.67884 -94.98561 39938 ft 419 kts 238°
2026-04-24 13:01 31.64098 -95.03762 39946 ft 418 kts 238°
2026-04-24 13:01 31.60343 -95.08908 39953 ft 418 kts 238°
2026-04-24 13:02 31.56561 -95.14101 39950 ft 418 kts 238°
2026-04-24 13:02 31.52789 -95.19280 39948 ft 418 kts 238°
2026-04-24 13:03 31.49014 -95.24458 39952 ft 418 kts 238°
2026-04-24 13:03 31.45258 -95.29603 39953 ft 418 kts 238°
2026-04-24 13:04 31.41475 -95.34778 39952 ft 417 kts 238°
2026-04-24 13:04 31.37709 -95.39918 39957 ft 414 kts 238°
2026-04-24 13:05 31.33990 -95.44991 39960 ft 413 kts 238°
2026-04-24 13:05 31.30250 -95.50089 39957 ft 413 kts 238°
2026-04-24 13:06 31.26501 -95.55191 39954 ft 413 kts 238°
2026-04-24 13:06 31.22750 -95.60288 39951 ft 413 kts 238°
2026-04-24 13:07 31.19024 -95.65345 39922 ft 413 kts 238°
2026-04-24 13:07 31.15274 -95.70426 39930 ft 413 kts 238°
2026-04-24 13:08 31.11514 -95.75511 39884 ft 413 kts 238°
2026-04-24 13:08 31.07781 -95.80520 39912 ft 410 kts 239°
2026-04-24 13:09 31.02181 -95.88058 39913 ft 409 kts 239°
2026-04-24 13:09 30.98450 -95.93084 39914 ft 409 kts 239°
2026-04-24 13:10 30.94747 -95.98066 39903 ft 409 kts 239°
2026-04-24 13:10 30.91013 -96.03084 39917 ft 409 kts 239°
2026-04-24 13:11 30.87294 -96.08074 39930 ft 409 kts 239°
2026-04-24 13:11 30.83566 -96.13068 39943 ft 407 kts 239°
2026-04-24 13:12 30.79844 -96.18048 39941 ft 406 kts 239°
2026-04-24 13:12 30.76137 -96.23003 39974 ft 406 kts 239°
2026-04-24 13:13 30.72453 -96.27923 39977 ft 405 kts 239°
2026-04-24 13:13 30.68745 -96.32867 39977 ft 405 kts 239°
2026-04-24 13:14 30.65033 -96.37810 39960 ft 405 kts 239°
2026-04-24 13:14 30.61341 -96.42720 39958 ft 405 kts 239°
2026-04-24 13:15 30.57661 -96.47694 39960 ft 400 kts 243°
2026-04-24 13:15 30.54756 -96.53064 39940 ft 389 kts 250°
2026-04-24 13:16 30.52184 -96.58547 39886 ft 389 kts 250°
2026-04-24 13:16 30.49607 -96.64020 39602 ft 382 kts 250°
2026-04-24 13:17 30.48325 -96.66713 39383 ft 382 kts 250°
2026-04-24 13:17 30.47040 -96.69405 39045 ft 380 kts 250°
2026-04-24 13:17 30.45755 -96.72088 38604 ft 380 kts 250°
2026-04-24 13:17 30.44469 -96.74768 38059 ft 378 kts 250°
2026-04-24 13:18 30.43202 -96.77404 37562 ft 379 kts 250°
2026-04-24 13:18 30.41915 -96.80086 37087 ft 382 kts 250°
2026-04-24 13:18 30.40620 -96.82781 36625 ft 384 kts 249°
2026-04-24 13:18 30.39316 -96.85493 36171 ft 386 kts 249°
2026-04-24 13:19 30.38446 -96.87298 35860 ft 387 kts 249°
2026-04-24 13:19 30.37128 -96.90031 35387 ft 389 kts 249°
2026-04-24 13:19 30.35353 -96.93707 34757 ft 392 kts 249°
2026-04-24 13:19 30.34471 -96.95534 34421 ft 394 kts 249°
2026-04-24 13:20 30.33129 -96.98312 33885 ft 396 kts 248°
2026-04-24 13:20 30.31777 -97.01107 33258 ft 399 kts 248°
2026-04-24 13:20 30.30432 -97.03886 32697 ft 401 kts 248°
2026-04-24 13:20 30.29046 -97.06748 32131 ft 404 kts 248°
2026-04-24 13:21 30.27685 -97.09556 31581 ft 406 kts 247°
2026-04-24 13:21 30.26294 -97.12422 31027 ft 408 kts 247°
2026-04-24 13:21 30.24897 -97.15299 30486 ft 411 kts 246°
2026-04-24 13:21 30.23494 -97.18187 29900 ft 413 kts 246°
2026-04-24 13:22 30.22082 -97.21089 29288 ft 416 kts 246°
2026-04-24 13:22 30.20661 -97.24009 28525 ft 417 kts 245°
2026-04-24 13:22 30.19237 -97.26930 27772 ft 415 kts 245°
2026-04-24 13:22 30.17819 -97.29837 27093 ft 414 kts 245°
2026-04-24 13:23 30.16401 -97.32733 26402 ft 413 kts 245°
2026-04-24 13:23 30.14998 -97.35584 25701 ft 411 kts 244°
2026-04-24 13:23 30.13587 -97.38449 25010 ft 410 kts 244°
2026-04-24 13:23 30.12180 -97.41313 24323 ft 409 kts 244°
2026-04-24 13:24 30.10778 -97.44171 23635 ft 407 kts 244°
2026-04-24 13:24 30.09396 -97.46991 22899 ft 406 kts 243°
2026-04-24 13:24 30.08009 -97.49820 22160 ft 403 kts 243°
2026-04-24 13:24 30.06630 -97.52631 21519 ft 400 kts 243°
2026-04-24 13:25 30.05263 -97.55416 20846 ft 396 kts 243°
2026-04-24 13:25 30.03907 -97.58178 20188 ft 393 kts 243°
2026-04-24 13:25 30.02562 -97.60915 19526 ft 389 kts 243°
2026-04-24 13:25 30.01231 -97.63621 18880 ft 385 kts 243°
2026-04-24 13:26 29.99913 -97.66302 18243 ft 382 kts 243°
2026-04-24 13:26 29.98621 -97.68927 17558 ft 379 kts 243°
2026-04-24 13:26 29.97325 -97.71559 16905 ft 376 kts 243°
2026-04-24 13:26 29.96032 -97.74183 16256 ft 374 kts 243°
2026-04-24 13:27 29.94749 -97.76785 15624 ft 372 kts 243°
2026-04-24 13:27 29.93473 -97.79371 14974 ft 369 kts 243°
2026-04-24 13:27 29.92208 -97.81933 14329 ft 367 kts 243°
2026-04-24 13:27 29.90946 -97.84486 13687 ft 365 kts 243°
2026-04-24 13:28 29.89690 -97.87027 12993 ft 363 kts 242°
2026-04-24 13:28 29.88458 -97.89520 12336 ft 361 kts 242°
2026-04-24 13:28 29.87278 -97.92058 11733 ft 358 kts 244°
2026-04-24 13:28 29.86168 -97.94626 11314 ft 357 kts 245°
2026-04-24 13:29 29.85085 -97.97203 11068 ft 356 kts 245°
2026-04-24 13:29 29.84043 -97.99698 10952 ft 334 kts 245°
2026-04-24 13:29 29.83066 -98.02034 10824 ft 313 kts 245°
2026-04-24 13:29 29.82149 -98.04227 10721 ft 296 kts 245°
2026-04-24 13:30 29.81277 -98.06308 10590 ft 283 kts 245°
2026-04-24 13:30 29.80423 -98.08336 10391 ft 280 kts 245°
2026-04-24 13:30 29.79583 -98.10330 9982 ft 279 kts 245°
2026-04-24 13:30 29.78737 -98.12335 9477 ft 278 kts 245°
2026-04-24 13:31 29.77891 -98.14339 8961 ft 279 kts 245°
2026-04-24 13:31 29.77058 -98.16312 8500 ft 279 kts 245°
2026-04-24 13:31 29.76208 -98.18323 8026 ft 279 kts 245°
2026-04-24 13:31 29.75358 -98.20333 7579 ft 278 kts 246°
2026-04-24 13:32 29.74523 -98.22305 7163 ft 277 kts 246°
2026-04-24 13:32 29.73682 -98.24294 6742 ft 276 kts 246°
2026-04-24 13:32 29.72842 -98.26277 6298 ft 275 kts 246°
2026-04-24 13:32 29.72004 -98.28255 5864 ft 274 kts 246°
2026-04-24 13:33 29.71168 -98.30231 5443 ft 272 kts 245°
2026-04-24 13:33 29.70344 -98.32174 5060 ft 269 kts 245°
2026-04-24 13:33 29.69531 -98.34095 4680 ft 265 kts 244°
2026-04-24 13:33 29.68732 -98.35981 4322 ft 258 kts 243°
2026-04-24 13:34 29.67970 -98.37776 4146 ft 246 kts 243°
2026-04-24 13:34 29.67243 -98.39488 4036 ft 232 kts 243°
2026-04-24 13:34 29.66617 -98.41173 3893 ft 236 kts 252°
2026-04-24 13:34 29.66199 -98.43026 3852 ft 234 kts 255°
2026-04-24 13:35 29.65848 -98.44781 3725 ft 216 kts 255°
2026-04-24 13:35 29.65521 -98.46405 3508 ft 202 kts 253°
2026-04-24 13:35 29.65205 -98.47928 3311 ft 190 kts 252°
2026-04-24 13:35 29.64898 -98.49370 3199 ft 181 kts 253°
2026-04-24 13:36 29.64597 -98.50759 3151 ft 177 kts 253°
2026-04-24 13:36 29.64301 -98.52089 3152 ft 170 kts 253°
2026-04-24 13:36 29.64010 -98.53399 3152 ft 169 kts 251°
2026-04-24 13:36 29.63698 -98.54693 3140 ft 166 kts 244°
2026-04-24 13:37 29.63436 -98.56004 2800 ft 174 kts 271°
2026-04-24 13:37 29.63636 -98.57365 2486 ft 173 kts 277°
2026-04-24 13:37 29.63962 -98.58681 2294 ft 174 kts 295°
2026-04-24 13:37 29.64625 -98.59860 2288 ft 178 kts 304°
2026-04-24 13:38 29.65478 -98.60894 2211 ft 179 kts 312°
2026-04-24 13:38 29.66378 -98.61887 2135 ft 179 kts 310°
2026-04-24 13:38 29.67294 -98.62861 2133 ft 181 kts 312°
2026-04-24 13:38 29.68232 -98.63845 2152 ft 184 kts 317°
2026-04-24 13:39 29.69312 -98.64582 2098 ft 175 kts 328°
2026-04-24 13:39 29.70358 -98.65192 2108 ft 168 kts 328°
2026-04-24 13:39 29.71401 -98.65794 2157 ft 167 kts 328°
2026-04-24 13:39 29.72218 -98.66651 2138 ft 155 kts 287°
2026-04-24 13:40 29.72256 -98.67800 2187 ft 144 kts 243°
2026-04-24 13:40 29.71558 -98.68554 2184 ft 144 kts 198°
2026-04-24 13:40 29.70580 -98.68454 2275 ft 146 kts 165°
2026-04-24 13:40 29.69626 -98.68028 2228 ft 146 kts 159°
2026-04-24 13:41 29.68855 -98.67237 2183 ft 153 kts 137°
2026-04-24 13:41 29.68117 -98.66329 2234 ft 157 kts 139°
2026-04-24 13:41 29.67372 -98.65426 2215 ft 158 kts 138°
2026-04-24 13:41 29.66629 -98.64497 2214 ft 157 kts 136°
2026-04-24 13:42 29.65897 -98.63552 2206 ft 159 kts 136°
2026-04-24 13:42 29.65162 -98.62601 2238 ft 159 kts 137°
2026-04-24 13:42 29.64428 -98.61656 2219 ft 156 kts 138°
2026-04-24 13:42 29.63708 -98.60727 2213 ft 154 kts 139°
2026-04-24 13:43 29.62997 -98.59810 2216 ft 154 kts 139°
2026-04-24 13:43 29.62294 -98.58904 2237 ft 153 kts 138°
2026-04-24 13:43 29.61588 -98.57988 2231 ft 153 kts 138°
2026-04-24 13:43 29.60880 -98.57077 2246 ft 153 kts 139°
2026-04-24 13:44 29.60167 -98.56162 2228 ft 154 kts 137°
2026-04-24 13:44 29.59449 -98.55232 2244 ft 157 kts 137°
2026-04-24 13:44 29.58714 -98.54283 2181 ft 159 kts 136°
2026-04-24 13:44 29.57985 -98.53339 1971 ft 156 kts 137°
2026-04-24 13:45 29.57271 -98.52414 1764 ft 152 kts 137°
2026-04-24 13:45 29.56582 -98.51524 1510 ft 151 kts 135°
2026-04-24 13:45 29.55876 -98.50616 1337 ft 153 kts 136°
2026-04-24 13:45 29.55161 -98.49686 1123 ft 155 kts 134°
2026-04-24 13:46 29.54478 -98.48734 933 ft 154 kts 135°
2026-04-24 13:46 29.53766 -98.47871 808 ft 138 kts 132°
2026-04-24 13:46 29.53207 -98.47187 805 ft 97 kts 133°
2026-04-24 13:46 29.52876 -98.46756 809 ft 34 kts 133°
2026-04-24 13:47 29.52764 -98.46600 809 ft 18 kts 113°
2026-04-24 13:47 29.52791 -98.46529 809 ft 9 kts 40°
2026-04-24 13:47 29.52836 -98.46486 809 ft 10 kts 40°
2026-04-24 13:47 29.52907 -98.46417 809 ft 17 kts 40°
2026-04-24 13:48 29.53013 -98.46313 810 ft 23 kts 41°
2026-04-24 13:48 29.53152 -98.46176 833 ft 29 kts 41°
2026-04-24 13:48 29.53315 -98.46013 806 ft 25 kts 41°
2026-04-24 13:48 29.53372 -98.45900 806 ft 13 kts 104°
2026-04-24 13:49 29.53321 -98.45831 806 ft 14 kts 132°
2026-04-24 13:49 29.53292 -98.45774 806 ft 3 kts 92°
2026-04-24 13:49 29.53298 -98.45766 806 ft 2 kts 52°
2026-04-24 13:49 29.53326 -98.45746 806 ft 7 kts 26°
2026-04-24 13:50 29.53375 -98.45692 806 ft 11 kts 71°
2026-04-24 13:50 29.53352 -98.45638 806 ft 10 kts 131°
2026-04-24 13:50 29.53308 -98.45605 806 ft 5 kts 171°
2026-04-24 13:50 29.53286 -98.45622 806 ft 5 kts 233°
2026-04-24 13:51 29.53274 -98.45636 806 ft 0 kts 224°